Theta_e
349 350 350 351 352 353 354 355 355 355 356 356 357 359 360 359 359 358 360 361 358 355 354 353 351 353 355 353 352 354 356 358 359 361 360 360 362 365 368 365 365 367 366 367 366 367 368 368 370 371 370 368 367 366 365 366 367 367 366 366 362 360 359 362 356 352 349 345 348 346 347 348 348 346 344 343 344 344 345 346 345 346 347 347 348
349 349 350 351 351 352 353 354 355 353 355 355 356 357 360 359 359 359 359 359 358 357 355 355 356 355 354 355 355 356 357 357 358 361 361 360 365 367 368 365 365 367 367 368 370 371 371 368 371 371 371 368 369 369 369 368 367 365 362 358 362 358 354 352 352 351 346 341 339 339 341 343 347 345 339 341 343 343 344 346 347 343 342 344 347
347 348 349 349 350 352 354 355 355 355 356 355 356 357 359 358 360 361 360 360 359 359 359 357 359 361 359 358 357 356 360 361 360 361 363 360 363 368 368 366 366 367 368 369 372 372 371 370 370 371 372 369 368 368 369 369 368 365 362 356 354 357 354 355 355 354 342 343 344 340 333 334 342 338 340 341 340 342 342 342 344 342 344 348 347
346 348 348 349 350 352 354 354 355 356 356 357 356 356 356 358 359 361 361 361 360 362 361 363 363 365 364 363 362 359 358 362 364 363 364 362 360 366 368 367 367 365 366 369 372 372 373 370 370 369 372 371 369 367 368 367 369 363 359 358 358 352 350 350 353 355 349 343 336 334 335 331 331 334 337 340 341 340 340 339 344 344 344 346 345
347 348 349 349 350 351 354 355 356 355 355 356 356 356 356 358 359 361 362 362 363 363 363 365 364 364 363 364 364 362 362 362 361 360 362 363 360 363 365 368 367 365 366 371 371 371 373 371 370 370 370 372 370 367 368 366 367 365 361 360 358 353 347 349 352 352 352 350 341 330 328 326 331 333 334 338 338 337 338 339 343 342 342 347 344
349 349 349 350 351 352 354 356 355 356 355 357 357 356 358 358 360 362 362 363 363 364 366 365 363 361 360 358 356 356 356 356 356 356 357 360 356 357 365 367 365 366 366 370 371 370 373 372 373 370 368 369 370 368 368 367 366 365 361 360 357 358 355 349 346 352 349 351 351 344 348 337 332 337 334 331 342 340 341 340 343 342 343 345 347
349 350 350 349 351 352 353 355 356 355 356 358 358 358 359 360 362 362 362 363 365 366 367 365 364 363 362 359 357 356 356 357 360 360 359 361 361 358 361 366 368 365 365 368 369 370 371 372 372 372 369 369 371 370 368 363 362 363 362 360 358 359 357 350 346 346 350 350 348 343 342 343 342 338 332 337 332 337 339 338 339 342 342 342 342
348 349 350 351 352 352 352 355 355 355 357 358 358 359 361 362 363 363 363 363 365 366 365 365 363 363 362 360 358 358 356 358 361 361 363 365 363 361 361 363 368 368 364 367 369 368 369 370 373 372 369 370 370 368 365 364 363 363 363 363 362 361 358 351 347 343 344 345 346 343 343 345 347 343 343 337 335 333 334 337 340 340 342 342 342
347 348 350 350 351 352 353 354 356 357 356 357 358 360 362 364 364 364 363 364 365 367 365 365 364 364 363 361 358 359 360 359 362 363 362 365 365 365 364 364 367 370 367 366 368 369 368 368 370 371 370 370 370 366 364 363 363 363 363 362 361 360 359 355 351 348 347 343 343 344 344 344 342 342 344 344 337 333 331 334 336 339 340 341 342
347 348 350 351 352 353 354 355 356 356 357 360 360 361 362 364 365 365 364 364 365 366 366 367 365 364 363 362 361 359 360 360 362 362 364 366 366 367 366 365 363 366 369 369 369 370 368 369 368 369 370 366 365 364 364 363 363 364 364 363 362 360 358 356 351 351 348 345 346 345 343 342 342 341 339 339 339 341 333 333 335 335 335 338 342
347 348 349 351 353 354 355 354 356 357 358 358 359 360 361 363 365 365 365 364 365 365 364 365 365 364 363 363 363 362 363 362 361 363 364 365 364 365 366 366 366 363 363 367 369 369 369 369 367 367 369 367 365 365 365 362 362 363 363 364 363 360 357 355 354 353 350 346 348 346 344 343 341 339 339 338 338 337 335 333 333 335 333 335 341
347 347 348 350 352 353 354 354 356 357 357 357 358 360 361 363 364 365 366 365 364 362 363 363 362 363 365 365 364 365 365 362 362 362 364 364 364 363 364 365 366 364 366 362 366 365 367 367 369 368 367 367 365 366 365 364 364 363 363 364 363 361 360 355 354 352 348 347 346 345 344 344 344 342 342 343 340 339 338 337 335 339 338 337 342
347 348 349 349 350 351 352 354 356 357 357 358 357 358 361 363 365 364 365 365 364 363 362 363 362 362 363 363 365 366 366 365 364 363 365 364 364 363 364 364 366 364 365 363 364 368 367 369 369 367 367 367 368 366 366 367 366 363 363 362 362 360 357 356 354 352 348 345 342 345 345 344 343 344 342 341 343 342 341 336 338 337 336 336 340
346 347 348 349 351 352 353 354 355 356 357 356 358 359 360 361 364 364 365 366 365 363 363 363 362 363 365 365 365 365 366 367 365 363 364 365 365 364 363 363 364 364 363 366 364 367 367 370 371 369 370 370 369 368 368 367 367 365 365 364 361 360 359 358 356 352 350 349 348 345 345 344 344 345 343 341 341 340 336 336 338 338 336 334 339
346 347 347 349 351 353 353 354 355 355 357 356 357 359 361 361 363 364 365 365 365 365 364 362 361 363 364 365 365 366 365 366 366 365 364 365 364 365 365 364 362 365 363 367 369 369 370 371 371 369 368 368 368 367 366 366 368 367 366 365 363 360 359 357 354 350 347 347 348 347 348 347 344 347 344 344 342 342 341 340 338 336 332 332 333
344 346 348 350 352 354 353 354 355 355 357 357 358 359 359 361 363 364 365 366 366 366 364 363 363 363 365 365 364 366 367 366 366 367 366 366 367 366 367 367 365 365 368 368 370 370 370 370 371 370 370 367 366 367 365 364 367 365 365 365 363 360 358 357 354 350 347 349 348 349 348 343 347 346 346 344 343 344 344 343 343 339 334 331 333
344 345 347 350 351 354 354 355 355 355 356 356 359 360 361 361 362 363 365 366 366 366 364 363 363 364 364 365 365 365 365 365 364 366 364 367 368 368 366 367 367 367 367 369 370 372 371 371 370 368 369 369 367 366 364 365 366 365 362 364 362 358 359 357 353 350 349 347 347 348 348 346 346 350 348 347 348 348 346 345 344 340 340 333 332
344 347 350 351 351 353 353 354 355 356 356 357 359 361 361 361 362 363 364 364 365 365 363 364 364 364 365 365 365 365 364 365 367 367 366 366 367 368 367 366 366 365 366 367 370 371 372 372 370 369 367 368 366 365 365 365 366 364 364 364 362 361 358 357 355 351 351 350 349 349 348 347 348 349 348 346 349 350 346 345 344 343 342 338 335
342 345 348 349 350 351 353 353 354 356 358 359 359 359 360 361 361 361 363 363 364 364 365 366 365 364 364 364 364 364 365 365 367 369 369 367 365 366 365 365 366 367 367 368 370 370 370 371 371 369 368 368 368 366 366 365 366 363 362 361 363 363 359 356 357 353 351 350 350 349 351 349 351 351 350 346 348 349 346 345 344 345 344 343 340
341 344 346 348 349 351 352 352 352 354 356 357 357 358 357 359 360 361 362 364 364 364 365 364 364 364 364 366 367 367 366 366 367 368 367 366 366 365 366 363 364 366 366 367 368 367 369 369 369 366 365 366 367 366 366 366 364 363 361 358 359 362 359 357 356 354 351 352 352 350 351 351 351 352 349 347 347 350 348 345 345 344 345 345 342
341 343 345 347 349 349 351 353 352 353 356 356 356 356 356 357 358 360 361 361 361 362 363 364 364 364 366 366 365 366 366 367 368 368 367 367 367 366 365 365 367 366 366 366 367 368 368 369 367 368 366 366 368 367 366 366 365 363 362 363 363 360 359 357 358 355 353 352 353 351 351 352 353 351 350 347 346 348 348 345 347 346 343 345 343
343 342 344 345 349 349 350 352 353 351 352 353 354 354 355 356 357 357 357 359 358 360 363 364 365 364 364 365 366 367 367 368 367 366 366 365 366 366 367 367 364 367 367 365 368 368 368 368 367 368 368 367 368 369 366 366 365 364 363 362 361 360 359 359 358 355 355 353 354 352 350 351 353 351 350 348 347 346 346 343 344 344 342 343 345
341 342 342 344 348 350 349 351 352 351 352 352 353 352 353 355 355 356 355 356 357 359 361 364 364 364 364 365 365 366 366 367 365 365 363 364 365 366 367 365 363 364 367 367 367 367 369 369 369 368 369 368 369 368 367 366 366 365 364 363 362 361 359 359 357 355 355 355 353 352 350 351 351 351 350 349 348 348 347 345 344 345 344 344 346
339 340 339 343 344 348 350 349 351 352 352 352 352 352 352 353 353 354 354 355 356 357 359 362 363 362 364 364 365 365 364 364 363 363 362 363 363 365 366 365 364 362 364 367 367 368 369 370 369 368 369 369 369 368 366 366 366 366 365 365 365 364 362 361 358 356 355 355 353 352 349 349 351 350 351 350 349 349 347 346 345 346 347 345 346
339 338 338 340 341 345 349 350 354 353 351 352 352 352 351 352 352 352 353 354 356 358 358 360 361 361 361 362 362 363 362 363 362 361 362 362 362 363 364 364 364 362 363 366 367 368 369 370 368 368 369 369 369 369 367 365 366 367 367 367 368 367 365 363 360 358 355 357 355 352 350 349 351 350 351 349 349 349 348 347 346 345 346 346 345
344 343 339 338 342 346 351 352 353 352 350 353 353 351 350 351 352 352 352 354 355 356 357 359 360 359 360 361 361 361 361 361 361 361 361 361 361 361 362 364 364 363 363 363 366 366 367 369 370 370 370 370 371 370 368 367 366 366 367 366 367 367 365 364 362 359 358 358 357 355 352 351 350 351 350 350 350 350 350 348 347 346 346 347 345
339 343 343 344 344 346 350 353 351 349 350 351 350 350 350 352 353 352 353 353 355 356 358 357 359 359 360 360 360 361 361 360 361 361 361 361 360 360 360 362 364 363 363 361 363 366 367 368 370 370 369 370 370 370 370 370 368 367 368 367 365 366 365 364 363 360 359 358 357 356 355 353 352 352 351 350 351 351 350 350 349 348 347 347 345
343 346 346 346 347 347 350 353 351 349 350 349 350 349 350 351 351 352 352 352 354 356 356 357 358 359 361 359 360 362 363 363 362 364 363 362 362 361 362 363 364 363 362 361 361 364 366 367 369 370 370 371 371 370 371 371 370 368 367 368 366 365 365 364 364 362 360 358 358 357 355 355 354 355 354 352 352 351 352 351 349 349 348 347 345
340 347 351 351 349 351 350 349 350 347 347 349 348 349 351 352 352 353 351 352 355 355 356 356 358 360 361 362 363 363 364 364 364 365 364 364 362 363 363 363 364 364 363 362 363 363 365 367 368 369 369 369 368 369 369 370 369 368 367 366 366 365 365 364 363 362 361 360 360 359 357 356 357 352 348 349 348 348 353 350 351 351 349 347 345
332 343 346 354 354 354 354 351 351 347 347 346 348 351 349 350 350 351 352 352 354 355 356 356 356 359 362 363 364 364 365 365 365 364 365 365 363 363 362 363 363 364 365 365 365 364 364 365 366 368 369 368 367 368 354 338 345 367 367 366 366 366 365 364 364 362 361 361 359 358 358 352 347 345 345 344 342 343 345 350 352 353 349 347 345
332 344 344 349 354 352 354 353 352 350 348 347 349 351 350 349 349 350 352 352 352 355 355 356 357 360 363 364 365 365 366 365 365 366 366 366 364 364 364 364 364 365 365 366 365 363 362 364 365 366 366 366 367 365 337 333 335 340 361 367 365 366 366 364 363 363 362 361 361 360 360 354 350 346 350 340 341 339 340 342 348 350 349 349 345
327 330 341 349 350 352 351 352 351 350 349 348 350 350 349 347 348 349 350 352 352 353 354 358 358 362 364 364 364 366 366 366 366 366 366 367 365 364 364 365 364 364 366 366 364 364 365 364 364 365 365 366 367 343 331 331 333 333 341 365 366 365 364 364 363 363 362 362 361 360 359 360 356 354 354 351 344 338 336 337 339 343 344 345 344
328 328 344 340 338 343 353 349 348 348 347 348 350 348 349 350 350 351 353 351 350 352 357 360 360 362 364 366 367 366 366 367 367 366 367 367 366 365 364 364 363 366 366 366 366 364 364 364 364 365 365 365 366 338 330 328 330 331 333 346 363 365 363 363 363 363 363 363 362 360 359 359 359 345 348 353 352 348 334 333 335 338 340 338 334
325 327 335 341 343 343 342 346 350 349 345 347 350 347 348 350 350 351 351 353 353 353 357 360 362 363 366 368 367 367 367 367 368 368 367 367 366 365 364 364 364 366 366 366 365 365 365 366 365 365 366 366 367 336 327 326 327 327 329 337 361 363 363 362 363 362 363 363 362 361 359 358 359 356 354 353 354 352 348 345 344 345 345 343 337
332 335 335 342 350 351 351 347 343 344 347 347 346 347 348 349 350 349 352 357 354 355 355 360 362 362 365 367 367 366 367 368 368 368 367 367 366 366 365 364 364 364 365 365 364 365 365 366 366 365 365 365 365 332 324 323 324 324 326 331 359 361 362 362 362 362 362 362 363 362 362 360 360 358 355 352 354 353 351 346 345 344 344 345 345
332 346 356 360 354 352 348 349 349 346 344 346 346 347 345 345 348 348 349 351 353 355 354 358 361 362 364 366 365 366 366 366 366 367 366 365 366 366 365 365 364 363 365 365 366 366 365 365 364 364 363 362 364 329 322 322 322 322 324 345 357 359 360 360 361 359 359 360 361 362 362 361 361 360 344 334 343 354 353 349 346 346 345 345 345
350 350 349 355 359 357 354 355 351 347 344 344 345 345 345 344 345 346 349 350 352 355 356 358 360 362 364 366 366 364 364 365 365 365 364 364 364 365 365 366 364 363 363 364 364 363 365 363 363 364 361 361 364 340 320 319 320 320 326 351 356 357 358 359 359 359 359 359 359 360 360 361 361 361 339 327 332 341 352 350 348 346 344 343 343
346 352 353 356 357 358 358 357 354 351 348 347 346 346 346 346 346 346 348 349 350 354 358 361 362 364 365 367 366 365 365 365 365 364 364 364 365 366 366 366 364 363 362 364 365 364 365 365 364 362 361 361 362 343 318 318 318 317 330 353 355 356 357 357 356 358 358 358 357 347 353 360 360 361 328 325 328 342 351 349 346 345 344 343 343
350 351 351 353 358 361 360 360 360 351 348 348 347 347 344 346 347 345 347 350 351 355 359 361 363 365 367 367 366 366 366 366 365 365 365 365 365 366 367 367 365 365 364 366 365 365 364 364 362 362 342 355 362 345 316 318 316 316 332 356 356 356 356 355 354 354 357 356 357 351 341 348 353 351 321 323 324 337 350 349 347 345 344 342 342
351 353 356 357 359 360 359 354 351 352 350 351 346 346 348 347 346 345 345 348 351 356 361 363 364 365 368 367 367 367 367 366 366 367 367 366 367 367 367 366 366 364 363 364 363 364 363 362 362 361 360 361 360 364 340 315 315 314 321 354 358 355 354 354 354 353 355 356 356 358 346 329 330 325 318 319 320 326 347 348 348 343 342 342 342
351 351 352 356 357 357 355 354 360 358 354 350 346 346 347 349 350 349 347 348 353 358 362 364 364 364 366 366 366 367 367 367 368 368 368 367 367 366 366 366 364 363 363 363 364 363 362 363 363 364 362 360 360 361 358 313 314 313 316 330 357 357 357 356 355 353 354 353 354 353 356 331 323 317 316 314 316 320 331 349 348 345 346 344 339
351 352 352 354 354 356 355 353 355 355 351 350 351 349 350 352 352 351 351 351 356 361 365 365 365 365 366 367 367 369 369 367 368 368 367 366 367 367 367 366 364 364 364 363 364 362 359 360 360 361 361 361 353 340 363 318 314 312 314 318 350 358 357 357 356 355 354 354 354 354 355 335 320 316 314 312 313 317 323 348 350 329 328 326 345
348 350 351 351 354 353 353 354 354 356 356 354 350 352 354 354 354 356 353 355 357 363 366 365 365 364 365 367 368 367 366 364 364 366 367 366 367 366 366 367 366 365 363 361 360 360 359 358 358 360 361 361 363 360 334 336 313 312 311 315 324 344 334 359 356 355 354 354 356 356 352 325 317 312 310 311 312 315 319 339 324 321 319 323 335
346 346 346 350 353 353 353 354 354 357 360 361 357 355 357 357 357 366 361 360 363 365 366 364 364 364 364 366 367 365 365 363 364 365 365 365 365 364 365 366 366 363 359 358 358 359 357 356 357 356 359 360 364 363 340 328 327 311 312 313 316 323 328 351 358 356 356 355 355 356 349 317 313 308 308 310 313 315 330 321 315 316 319 326 341
344 343 345 347 348 349 349 351 352 355 357 361 364 361 362 362 363 366 363 362 364 364 363 361 362 363 364 366 366 365 365 364 364 363 364 363 365 366 364 366 365 362 359 358 358 358 356 357 356 356 358 359 360 362 362 340 321 315 312 312 315 319 321 324 353 358 359 356 340 331 323 312 312 309 309 311 312 313 318 317 312 316 325 341 340
343 345 344 345 346 347 347 347 349 352 354 357 357 358 357 358 361 363 366 363 362 361 362 361 362 363 363 364 364 364 364 364 364 364 365 365 365 364 363 363 362 359 359 359 358 356 356 357 356 357 357 357 359 361 361 361 329 322 317 314 315 317 322 322 334 351 337 332 325 322 315 313 312 315 323 327 327 325 318 317 315 322 340 339 339
341 343 344 345 345 344 343 344 345 349 352 353 354 356 357 359 360 361 364 367 365 362 361 360 360 360 363 363 363 360 360 361 364 362 363 364 364 364 364 362 362 359 359 358 357 356 355 355 355 356 357 358 359 359 360 362 352 343 335 328 321 324 319 321 334 351 339 347 332 325 325 319 321 318 323 322 324 322 323 324 328 335 339 339 339
344 345 345 344 343 343 342 343 343 348 351 351 351 353 355 357 357 361 364 366 365 363 361 361 361 361 361 362 360 362 360 359 361 364 361 362 364 364 362 361 361 360 358 357 357 355 355 355 354 355 356 357 357 359 359 360 356 347 343 339 331 331 335 338 343 350 356 346 336 320 318 327 326 324 328 330 332 330 330 330 333 337 338 338 336
341 343 344 343 344 342 342 343 344 347 347 348 349 350 353 355 357 361 363 364 363 361 364 364 364 363 362 364 363 363 359 358 361 363 362 362 361 362 363 362 363 364 362 358 358 356 357 358 356 356 355 356 357 357 359 337 361 333 343 345 339 335 338 340 333 331 341 336 333 329 328 325 324 325 327 329 329 329 331 333 335 335 337 337 336
340 340 342 342 343 343 343 342 343 345 345 346 346 347 349 351 354 357 358 356 356 357 358 358 358 357 359 359 361 358 360 358 357 357 360 362 333 320 346 361 362 339 323 316 326 355 357 355 357 361 365 361 359 361 334 325 322 318 318 322 324 323 323 333 329 324 330 334 328 326 325 324 325 327 327 326 327 329 330 331 332 328 333 334 332
339 339 339 340 341 342 343 343 343 344 344 345 345 347 348 349 350 352 354 356 354 352 352 352 353 354 352 356 355 356 357 356 357 356 356 356 357 360 317 319 330 334 326 317 314 313 313 315 340 351 348 329 325 320 314 313 313 314 313 314 312 312 314 316 318 326 334 333 327 326 324 325 327 328 326 326 328 328 329 329 330 331 332 333 331
Wind_Speed
17 19 20 20 20 17 16 15 15 16 16 16 16 16 16 15 14 15 13 13 13 13 13 13 13 12 12 12 11 10 10 9 9 8 8 8 8 7 7 7 6 6 6 6 6 5 5 5 4 4 4 5 5 5 4 4 3 3 2 2 3 2 2 1 1 1 1 2 2 2 3 3 3 2 3 3 4 3 4 3 2 3 4 4 3
16 17 19 20 18 19 17 14 16 18 17 17 18 18 17 17 16 15 13 14 14 14 13 13 12 11 10 10 10 9 9 9 9 8 8 7 8 8 7 7 7 7 7 7 6 6 6 5 5 5 5 5 5 5 5 4 4 4 3 3 2 2 1 3 1 2 2 2 2 3 3 4 1 2 4 5 4 4 4 3 2 1 3 3 3
17 18 20 19 21 20 17 15 16 18 18 18 18 18 17 16 15 15 14 14 14 14 13 12 12 11 11 10 10 8 9 9 8 8 8 8 8 8 8 7 7 7 7 7 6 6 6 6 5 5 6 5 5 5 5 5 5 5 4 3 2 2 2 1 2 4 1 1 1 2 2 3 5 3 3 3 4 4 3 3 3 3 4 2 1
18 19 20 19 20 19 17 16 16 17 17 17 18 19 16 15 15 15 15 15 14 14 14 13 13 12 11 9 9 8 7 8 8 7 8 9 9 9 8 8 9 8 9 8 7 7 6 6 6 6 5 5 5 5 5 6 5 5 4 3 3 3 3 2 3 2 4 4 3 3 2 2 4 4 5 4 4 3 4 4 5 2 4 2 2
17 18 19 19 20 21 20 17 17 17 17 17 17 17 13 17 17 17 15 15 14 15 15 12 12 11 10 9 8 8 6 7 8 8 9 9 9 9 9 9 9 9 9 9 8 8 7 7 6 6 6 6 6 6 5 6 5 5 4 3 3 3 2 2 2 3 3 3 1 2 2 3 2 7 6 3 4 5 6 4 4 2 3 3 1
18 20 20 20 20 19 19 19 19 17 17 17 17 18 16 15 17 16 14 14 14 15 15 13 12 11 11 10 10 10 10 10 10 10 10 10 10 9 9 10 10 9 9 9 9 8 8 8 7 7 7 6 6 6 5 5 5 6 4 3 3 3 3 2 3 2 4 4 4 5 5 4 2 4 2 5 2 2 2 2 3 5 4 4 2
18 18 18 19 20 21 21 20 20 19 18 17 16 17 18 16 17 17 14 13 14 15 17 13 12 12 13 13 12 11 11 10 9 9 9 9 9 10 9 9 10 10 10 10 9 10 9 8 8 8 7 7 6 5 5 7 5 4 3 3 3 1 2 2 3 4 4 4 5 5 4 2 2 2 2 4 5 3 3 5 5 5 4 5 4
17 19 20 20 21 22 23 23 20 19 18 17 17 17 19 17 17 17 14 13 13 14 17 14 13 13 13 13 12 12 11 9 10 9 9 8 9 10 9 8 9 10 10 10 10 10 9 9 8 8 8 7 6 6 6 5 3 3 3 3 3 3 4 3 5 4 6 4 5 5 5 3 0 3 1 2 0 5 5 5 5 5 5 5 5
19 18 20 21 22 23 21 21 21 19 18 18 17 17 17 17 17 17 16 14 14 16 16 16 14 13 13 12 12 11 10 9 8 9 9 9 9 9 9 9 8 9 10 10 10 10 10 9 9 9 8 8 6 6 6 6 6 5 4 4 4 4 3 4 4 4 3 4 5 5 4 5 6 5 2 2 3 3 4 7 4 4 4 5 4
19 20 20 21 21 21 21 20 20 19 18 17 17 16 16 16 17 18 18 15 14 16 16 17 16 13 13 13 14 11 10 9 9 10 10 9 10 10 9 8 8 9 10 10 10 10 10 10 9 9 9 8 7 7 7 6 6 5 5 5 4 5 4 5 5 4 4 3 5 4 4 4 2 3 3 4 4 2 3 2 5 5 4 4 4
17 19 20 21 20 20 19 20 20 19 17 18 17 17 17 17 18 19 19 15 16 17 18 17 15 14 13 14 15 14 13 11 10 10 10 10 10 11 10 9 8 9 9 10 11 11 10 10 10 10 9 8 7 7 7 7 6 6 5 5 6 6 5 5 6 5 4 4 4 4 5 5 5 5 5 4 4 5 4 5 4 6 6 5 4
18 18 19 20 19 19 19 20 20 20 18 18 18 17 17 17 17 19 19 18 16 17 18 16 16 16 14 14 14 14 13 11 13 12 12 12 11 10 9 8 9 9 9 9 10 12 10 10 10 10 8 8 8 7 7 7 6 5 5 5 5 6 6 6 6 6 6 5 6 6 6 6 5 4 4 4 3 4 2 3 2 3 2 3 3
18 18 18 18 19 20 21 21 20 20 19 20 20 18 18 17 19 19 19 19 17 17 19 18 18 17 15 15 14 13 14 14 13 13 12 11 10 10 10 10 9 9 10 10 11 12 11 10 10 9 8 8 7 7 7 7 6 5 5 6 6 7 7 7 6 7 7 6 7 6 5 6 5 4 4 4 4 3 3 4 4 2 2 3 2
17 18 18 18 19 20 21 21 20 19 21 21 20 19 17 17 19 20 20 20 18 18 19 18 18 17 16 15 14 14 15 14 13 12 12 11 10 11 12 11 10 11 11 11 10 11 11 11 10 10 9 8 8 8 8 8 7 7 6 6 7 7 6 8 8 7 7 7 6 5 6 5 4 5 5 4 4 5 5 5 4 2 3 3 3
17 17 19 20 20 22 20 21 20 20 22 21 19 19 18 18 19 20 20 20 20 20 18 18 17 18 16 15 15 14 14 13 12 12 12 12 11 12 11 11 11 11 11 10 10 10 11 10 11 11 10 10 9 9 9 9 8 8 7 7 7 6 8 8 8 8 7 8 8 6 5 4 4 4 4 5 4 4 4 3 3 4 4 4 3
18 19 20 21 21 21 19 19 20 20 22 20 21 19 19 19 19 21 21 21 21 21 19 18 18 16 18 17 18 16 13 13 12 11 12 12 12 11 12 12 11 10 10 10 11 11 11 11 11 11 11 10 10 10 11 9 9 8 7 8 8 7 8 10 8 9 9 9 9 7 6 6 5 5 5 4 4 4 2 2 3 3 4 3 3
18 18 18 21 20 20 20 21 19 20 21 22 21 21 22 20 20 21 21 19 21 21 20 19 18 18 18 18 17 17 17 16 15 15 15 12 12 11 11 12 11 10 10 10 11 11 11 12 11 12 11 11 11 11 11 11 9 9 9 9 9 9 8 10 9 8 8 9 8 9 7 6 5 4 4 4 4 3 4 3 4 4 4 4 3
20 20 19 20 20 22 20 19 21 21 23 23 23 22 20 20 21 21 21 22 21 20 20 19 20 20 18 19 19 19 17 17 15 14 14 13 12 11 11 11 12 12 10 10 11 12 12 12 11 11 11 11 11 11 11 11 11 10 10 10 9 9 9 9 9 9 9 8 8 9 8 7 6 5 6 6 5 5 5 5 5 5 5 5 4
15 16 16 17 19 21 21 23 25 24 22 23 22 22 20 20 21 22 23 24 23 20 20 18 19 16 16 18 20 20 17 16 15 14 13 14 14 13 13 13 12 12 11 11 11 12 12 12 12 12 11 12 12 11 11 10 11 10 10 10 10 9 9 10 9 9 9 9 9 9 8 7 7 7 6 6 6 6 6 6 5 5 6 6 6
15 16 17 19 21 23 24 23 23 23 23 21 22 21 23 22 21 21 21 20 20 20 20 20 20 18 17 17 19 18 17 17 17 15 14 14 15 14 14 14 14 12 13 13 12 13 13 13 12 13 13 13 12 12 12 11 11 11 11 10 10 10 11 11 10 9 9 9 10 10 9 8 7 7 7 6 6 7 6 6 6 6 6 6 6
15 16 17 19 20 21 22 21 20 20 18 18 20 22 22 21 22 22 22 22 23 22 21 19 18 19 19 20 19 19 20 18 18 16 15 15 14 14 14 13 12 13 13 14 14 14 14 13 13 13 14 13 13 12 11 11 11 12 11 11 10 11 12 11 10 10 10 10 10 10 10 10 9 8 7 7 7 7 7 7 6 7 7 7 7
15 16 16 16 17 17 18 17 16 18 19 21 20 20 21 22 21 22 22 21 22 22 20 19 18 18 21 20 21 19 19 18 18 17 17 16 15 15 15 14 15 14 14 15 15 14 13 14 14 14 13 13 13 13 13 12 12 12 13 10 11 12 12 12 10 11 11 9 10 11 11 10 10 10 9 8 7 7 8 8 8 8 7 7 8
10 11 11 12 13 14 16 17 18 20 20 21 20 19 20 22 22 20 22 23 22 22 21 19 19 19 21 20 20 19 18 20 20 18 19 18 17 16 15 15 15 14 14 14 15 15 14 15 14 14 14 14 14 14 13 13 13 13 13 12 12 13 13 13 12 12 12 11 11 11 11 11 9 10 10 9 8 8 8 8 9 8 8 7 7
8 8 9 9 10 12 13 17 18 18 18 20 20 20 20 20 21 20 23 24 23 21 20 20 19 21 21 20 20 19 21 21 21 19 20 19 17 17 16 17 17 15 15 15 15 15 14 14 15 14 14 14 14 14 14 14 14 14 13 13 13 13 13 13 13 12 12 12 12 11 12 12 11 11 11 10 9 9 8 8 8 8 8 8 7
8 9 9 10 12 14 15 16 16 17 18 18 19 20 20 20 21 21 21 23 21 20 20 21 21 22 22 21 22 21 21 21 21 19 21 20 20 18 16 18 17 17 16 15 14 14 14 14 14 15 14 14 14 15 15 15 14 13 13 13 13 13 13 13 13 13 13 12 12 12 12 12 12 12 11 11 10 11 9 9 8 8 8 8 7
6 8 10 12 11 11 13 15 14 16 17 17 17 19 20 20 21 21 21 20 21 20 21 21 20 21 21 23 22 21 22 23 22 21 21 21 20 19 18 17 18 18 17 16 15 14 14 15 14 14 14 14 14 14 15 15 15 14 13 14 13 13 13 13 13 13 13 13 12 13 12 12 13 13 12 11 11 12 11 10 10 9 8 8 8
7 8 7 8 10 13 14 15 16 17 17 17 18 18 18 17 19 20 19 19 19 20 20 20 20 21 20 22 22 22 20 21 21 20 19 19 20 20 20 18 17 18 18 18 17 16 14 14 15 14 15 15 15 15 14 15 15 14 14 14 13 13 13 12 13 14 14 14 13 13 12 13 14 14 13 12 12 12 11 12 11 10 9 9 9
5 6 9 11 12 12 13 14 16 16 17 17 17 18 18 18 19 19 19 18 17 19 20 20 19 19 19 21 21 20 20 19 19 18 19 19 19 19 19 17 17 18 18 19 18 17 15 14 15 15 15 14 15 15 15 15 14 14 14 14 13 13 13 13 13 14 14 14 14 14 14 14 14 14 14 12 12 12 10 11 10 10 10 10 9
8 8 8 10 11 11 13 13 14 16 18 19 18 18 17 17 18 18 19 20 18 19 20 20 19 19 19 19 18 17 17 17 17 17 18 18 18 17 17 17 16 16 15 18 18 17 16 16 15 15 16 15 15 15 13 14 14 15 14 14 14 14 14 13 13 13 14 14 13 13 13 14 14 14 16 13 13 11 10 10 10 10 11 10 9
4 7 9 10 10 9 11 12 13 16 17 18 17 17 19 19 19 19 19 19 17 18 19 19 20 19 17 17 17 16 16 17 17 18 18 18 18 17 18 18 17 17 15 15 16 16 17 16 16 16 15 14 14 13 14 18 16 13 14 12 12 13 14 13 12 13 13 14 14 13 13 15 14 15 15 14 13 12 13 10 10 11 11 10 10
6 5 7 6 7 8 9 12 14 15 17 17 16 16 17 19 18 19 19 19 18 17 18 19 19 18 16 16 16 16 16 17 18 17 17 18 18 16 16 16 17 16 16 15 15 17 17 16 17 16 17 15 14 13 17 18 18 17 13 13 13 12 13 13 13 13 13 13 13 13 12 12 13 12 14 15 14 13 15 12 9 11 12 11 10
12 9 3 5 6 8 10 12 14 15 17 17 16 17 17 19 19 19 19 18 18 19 19 18 18 16 16 17 17 16 16 17 17 18 17 17 16 17 16 16 16 17 15 15 16 17 16 16 15 16 17 16 15 15 18 20 20 19 16 13 12 12 12 13 13 13 12 12 12 12 12 10 12 14 13 13 14 15 14 14 12 10 12 13 11
13 12 6 6 7 8 10 11 12 13 15 18 17 16 17 18 17 17 14 16 19 19 17 16 16 16 16 16 15 16 17 16 17 17 16 15 16 17 17 17 17 16 15 16 16 16 17 16 16 16 16 16 15 16 20 21 21 21 21 18 13 12 13 13 13 14 13 12 12 11 11 11 9 14 13 13 13 13 13 15 15 12 10 11 10
15 13 9 6 5 5 6 8 10 11 14 14 16 18 17 16 16 14 16 16 17 17 16 15 15 15 15 15 15 16 16 17 16 16 15 16 17 18 17 16 15 15 15 15 16 17 16 16 16 16 15 15 16 16 21 21 22 22 22 19 15 14 13 13 13 14 13 13 13 12 11 11 10 11 13 13 12 13 13 12 12 11 11 11 10
13 13 13 8 5 5 6 7 8 9 10 12 14 16 14 14 16 17 17 15 16 17 16 16 16 17 16 16 16 17 16 15 15 15 15 16 17 16 16 16 15 16 16 17 17 17 16 16 16 16 15 15 15 17 21 23 23 23 23 19 16 15 13 13 13 14 14 14 14 13 13 12 11 12 12 14 13 13 12 12 13 14 14 13 12
10 8 5 4 6 6 7 6 6 8 10 12 13 13 14 16 16 17 17 17 17 16 17 16 17 18 18 18 18 17 16 16 16 16 17 17 17 17 18 16 15 15 15 16 16 15 17 17 17 19 17 17 16 18 21 22 23 22 22 14 15 16 16 14 14 14 14 15 15 14 12 13 12 13 14 17 14 12 13 13 14 14 13 12 12
6 7 8 6 6 7 8 7 7 9 9 10 10 12 13 14 16 16 17 17 17 17 18 17 18 18 18 18 18 18 17 17 17 17 18 18 18 18 17 15 16 16 16 16 17 17 15 17 19 19 19 18 17 16 21 23 23 24 18 14 15 15 15 16 15 14 14 15 15 16 16 13 13 13 15 19 17 14 13 14 13 12 11 11 12
7 6 7 8 8 8 8 9 9 9 10 8 9 11 12 13 15 15 17 17 18 18 18 17 16 16 16 16 16 16 17 17 17 18 19 19 18 16 16 15 16 16 17 17 15 15 16 17 19 20 20 20 19 16 21 22 24 25 22 17 15 15 15 15 15 15 14 14 16 16 15 16 14 13 18 20 19 16 14 14 13 12 13 12 11
5 7 8 8 7 7 9 9 9 9 8 9 10 12 13 13 14 15 16 16 17 17 17 17 15 14 13 14 15 16 16 17 18 19 18 18 17 16 14 13 15 15 15 13 14 14 16 16 17 18 15 17 17 14 19 21 23 24 21 15 15 15 15 15 15 16 16 15 14 12 16 17 17 12 21 20 20 18 15 14 13 12 12 12 13
5 4 5 7 7 8 9 10 10 8 7 8 10 10 11 11 13 14 15 16 17 14 11 11 11 13 13 14 14 16 17 17 18 17 15 15 13 13 15 15 15 14 14 14 14 15 16 15 15 16 14 16 19 17 15 22 22 24 26 17 15 15 17 18 17 16 15 16 16 14 15 20 15 14 21 21 21 19 14 14 12 12 13 13 13
5 6 6 6 4 4 5 4 3 1 3 6 8 9 10 10 11 12 14 13 11 10 11 12 12 13 14 15 14 15 16 16 15 13 13 13 12 14 14 14 15 14 14 14 15 14 14 15 15 15 16 18 18 19 14 23 23 24 26 23 17 17 17 16 17 16 15 16 17 18 13 18 18 16 20 21 21 21 15 11 13 13 12 12 12
6 5 4 5 4 4 4 2 1 1 4 5 6 8 9 9 11 12 12 9 8 10 10 12 14 14 14 14 14 13 13 12 11 11 11 12 12 12 12 13 12 12 14 15 15 14 16 16 16 16 18 18 17 19 16 19 24 25 25 27 18 19 17 16 15 16 17 16 17 16 14 16 23 19 20 21 22 21 18 10 12 12 12 13 10
6 6 7 6 3 4 4 6 4 4 2 2 6 7 8 8 9 10 9 9 8 9 10 12 12 13 13 12 12 13 12 11 12 13 13 12 12 13 13 12 13 14 15 16 17 16 16 16 15 15 16 16 17 14 18 14 21 24 27 28 29 20 18 16 16 17 18 16 16 16 16 19 23 21 21 22 22 23 17 13 14 14 11 14 12
5 6 6 7 3 4 5 6 7 6 4 3 3 6 6 7 5 3 5 6 7 7 8 9 10 11 11 11 11 13 13 12 13 13 13 13 13 13 12 11 12 13 14 15 16 14 15 16 15 17 16 16 15 16 14 19 19 25 24 28 29 27 18 17 16 15 16 16 17 17 16 21 22 23 23 23 22 20 15 18 12 15 15 14 12
4 5 5 4 5 5 6 7 7 8 7 7 5 5 7 6 5 2 3 4 6 6 7 8 9 10 10 10 10 11 12 12 12 13 12 13 14 13 12 12 12 13 14 15 14 14 15 14 15 16 16 16 17 14 16 15 24 24 27 26 27 27 19 17 16 15 15 16 17 20 20 22 23 23 23 22 19 20 21 19 15 17 15 13 14
3 4 4 4 5 7 7 8 9 8 7 7 7 7 7 5 3 2 1 3 5 6 7 8 8 9 10 10 11 11 12 12 13 12 12 12 12 13 12 12 13 14 14 14 13 15 14 14 14 16 16 16 15 13 16 13 14 20 21 24 25 25 24 20 19 18 17 15 14 18 21 21 21 20 17 12 10 13 17 18 17 17 14 16 15
4 4 4 4 5 7 8 9 9 9 7 7 8 7 6 4 3 0 1 2 3 5 6 7 8 8 8 9 10 10 10 11 12 11 11 11 11 11 11 12 12 14 13 12 14 13 14 14 15 16 15 15 16 17 15 12 9 12 12 14 17 18 25 22 14 15 10 6 12 13 12 14 12 20 18 15 15 16 14 12 10 12 16 14 13
5 5 5 5 6 7 8 8 8 8 7 8 8 8 7 5 4 3 1 3 3 3 5 6 7 6 6 7 8 8 8 8 9 10 10 10 10 11 11 13 12 13 13 13 13 14 14 15 15 15 16 15 16 17 16 16 11 11 11 12 13 13 14 13 12 16 10 6 8 11 12 10 11 11 10 9 11 12 11 11 11 15 16 13 14
6 7 7 6 6 7 8 8 8 7 8 7 8 7 6 6 5 5 5 5 4 5 5 5 4 4 4 4 5 5 7 7 7 9 9 9 10 11 12 11 13 9 9 10 13 14 15 15 15 14 13 13 14 17 18 16 13 12 15 14 15 14 13 13 13 13 6 9 9 9 10 12 12 12 11 13 13 14 15 16 18 17 15 14 13
5 5 7 7 7 7 7 8 7 7 7 7 7 7 7 7 6 5 5 7 8 8 7 5 4 4 4 3 3 4 4 5 7 8 7 5 10 12 9 4 3 8 9 9 4 3 4 5 7 7 7 10 13 15 14 16 19 19 21 23 21 22 23 20 23 23 19 14 12 10 13 13 12 12 13 13 14 15 15 16 16 14 14 13 14
5 6 7 6 6 6 8 8 7 7 7 7 7 7 7 7 7 6 5 6 7 7 6 6 5 5 4 3 3 2 2 3 4 4 4 2 1 6 7 5 2 1 2 4 4 7 8 10 8 10 12 16 18 21 22 16 16 20 23 23 21 24 27 27 27 19 17 16 13 17 15 12 12 14 13 14 14 15 16 16 17 13 11 11 13
Wind_Direction
182 183 186 187 187 186 188 186 188 188 189 186 185 186 186 184 182 183 184 185 186 188 192 196 197 198 203 204 204 201 206 207 209 212 212 211 202 198 193 201 198 201 204 205 209 210 225 234 234 236 239 241 247 255 257 263 253 256 259 234 251 268 250 224 249 239 149 166 132 252 155 219 194 208 274 221 160 176 161 182 140 118 93 108 69
180 181 186 186 188 186 186 188 188 188 189 187 188 188 187 188 189 187 184 188 191 190 191 196 198 198 195 199 199 195 194 200 203 206 210 207 196 196 197 205 201 201 203 206 208 209 214 224 227 232 231 242 242 250 260 252 251 256 249 245 246 268 253 241 131 211 187 206 179 167 193 163 231 236 213 215 189 179 165 180 128 59 112 88 96
187 185 184 187 187 185 185 187 190 192 188 189 189 188 188 191 192 189 188 188 193 191 192 194 195 198 197 193 200 198 194 198 204 202 204 208 194 194 200 200 201 204 205 203 207 211 220 227 229 226 231 236 230 233 240 240 246 250 245 268 288 230 247 127 156 257 270 78 57 317 169 206 146 216 218 200 204 172 193 176 164 146 103 114 97
189 187 186 186 186 186 186 189 189 189 189 189 189 189 189 193 192 191 191 192 191 192 194 192 193 192 196 197 198 210 197 192 198 201 201 208 204 194 197 199 199 207 205 206 206 212 213 223 227 232 223 222 223 232 230 240 242 246 244 246 271 273 221 158 173 187 275 131 198 188 116 234 166 168 176 189 202 192 194 198 146 179 135 123 169
189 188 188 186 187 189 188 188 187 190 190 189 189 188 192 192 192 192 192 192 192 191 190 189 188 188 189 194 195 202 205 198 195 201 201 202 209 200 199 197 199 206 208 207 209 207 210 216 227 231 229 218 228 232 233 243 244 245 238 241 241 271 291 134 173 165 217 270 314 177 175 197 244 127 175 156 204 193 199 208 143 206 145 147 127
191 190 190 189 188 188 189 190 192 191 192 191 189 188 190 191 192 192 194 194 194 190 187 187 186 185 183 186 191 196 201 199 200 200 198 199 208 204 196 198 198 204 207 210 210 210 205 212 218 227 226 223 224 234 240 245 240 247 236 244 233 230 286 255 167 174 200 205 256 284 351 357 152 85 228 154 245 289 136 224 165 198 175 143 171
194 194 192 191 189 188 191 193 194 194 193 190 189 189 190 190 190 191 193 194 194 192 190 188 187 190 191 195 200 202 203 204 204 204 205 203 206 205 199 197 199 204 207 209 213 213 215 213 215 218 228 231 226 229 229 234 226 225 231 226 240 209 209 227 230 188 181 204 216 233 219 243 50 170 189 118 177 189 239 197 191 202 196 171 175
194 193 193 195 192 192 192 193 194 195 189 189 191 189 188 189 186 189 191 193 193 193 193 192 189 191 195 200 204 208 210 205 199 204 204 205 202 203 199 201 196 203 210 209 214 214 214 217 217 220 225 231 227 233 240 242 243 230 228 229 235 214 204 218 220 202 177 204 204 209 199 240 302 286 287 254 212 170 183 227 203 197 194 202 197
198 194 193 195 196 196 193 192 195 193 190 190 191 189 187 187 186 187 191 191 192 192 190 195 194 193 196 199 206 211 212 208 198 197 199 199 199 196 199 202 197 199 207 212 211 215 213 218 219 223 225 228 227 236 237 234 233 230 221 219 216 206 208 221 222 224 217 186 173 199 216 191 199 221 199 242 242 214 184 181 214 187 209 206 198
201 200 196 196 197 196 196 194 190 193 193 191 190 187 186 185 186 186 189 191 192 192 194 195 196 196 197 201 205 205 204 204 201 193 195 192 196 196 198 202 205 203 204 211 211 213 215 216 221 222 225 228 232 239 234 234 229 225 226 224 216 214 204 211 214 209 221 232 165 182 200 217 224 215 213 210 223 279 256 260 180 200 225 220 189
203 202 200 197 195 195 192 194 194 193 193 190 190 189 187 186 186 189 191 191 196 199 200 200 201 201 201 201 204 204 200 199 198 197 195 194 198 198 198 200 206 210 210 205 211 211 213 215 221 221 224 227 228 230 230 231 225 220 222 218 218 217 207 210 213 204 200 222 183 187 192 203 199 216 218 222 209 193 232 252 235 191 228 165 196
200 201 202 197 191 192 192 194 193 193 194 193 192 189 188 187 186 189 189 190 193 202 204 201 207 208 204 202 205 205 200 199 200 199 196 198 198 200 200 201 204 209 212 212 209 210 208 212 217 223 221 223 222 223 229 229 231 219 212 209 213 213 211 212 210 197 203 192 217 191 202 214 192 215 214 221 240 271 260 254 290 352 347 251 137
199 199 199 195 191 189 192 194 191 191 193 194 194 190 188 188 187 189 190 188 191 197 204 202 206 210 210 206 206 208 206 203 201 202 198 199 199 199 197 202 200 206 209 214 210 207 204 204 206 212 218 218 222 225 227 228 230 228 214 211 217 208 208 208 203 201 201 201 204 215 201 213 203 194 235 216 195 207 236 249 260 168 221 227 205
200 198 199 196 192 190 191 191 190 191 193 193 193 192 189 188 188 188 190 188 189 195 199 199 205 210 211 208 207 209 213 208 206 205 203 202 199 200 201 201 201 206 209 212 213 208 207 202 200 203 208 208 212 221 227 225 223 227 217 218 218 211 211 207 205 204 202 205 214 218 207 209 219 197 199 224 205 198 215 224 238 265 269 271 134
199 198 198 198 195 192 190 188 189 191 192 192 193 192 188 190 189 189 189 189 189 191 194 197 203 209 210 209 210 211 211 210 209 207 205 204 203 201 202 204 206 207 210 211 209 209 207 203 200 201 199 204 212 219 223 223 221 220 223 222 225 212 210 207 202 203 199 203 206 216 232 224 217 214 218 198 233 212 206 213 213 221 221 235 210
198 200 200 198 195 193 191 189 189 190 190 191 191 190 191 191 188 189 188 186 188 190 192 195 202 205 209 210 213 211 211 212 213 204 206 205 203 202 201 203 207 207 207 206 203 204 203 205 202 203 200 199 205 214 220 221 214 218 220 224 222 213 209 205 202 200 201 198 205 206 216 229 206 213 217 212 215 241 224 234 193 235 256 225 223
198 200 199 198 196 194 193 190 190 190 189 191 190 190 191 188 187 189 189 188 189 191 192 195 198 202 204 208 211 213 213 212 212 204 203 203 203 204 204 205 205 207 204 202 201 199 201 203 207 209 203 201 201 207 215 220 217 216 219 222 220 217 207 208 203 199 203 197 201 203 207 220 222 211 224 221 211 216 214 217 225 230 222 262 242
199 200 197 195 195 195 195 193 193 191 190 190 189 189 189 190 188 186 187 190 191 190 192 192 195 199 200 203 209 213 213 212 213 206 200 201 203 206 207 205 207 206 205 203 200 198 199 200 206 209 209 205 205 204 208 215 215 216 215 220 221 220 211 209 204 203 202 205 204 199 203 208 207 210 209 222 204 204 212 213 217 222 228 235 244
200 200 196 195 197 197 195 195 194 194 192 190 188 187 188 191 192 190 190 190 189 189 190 192 195 198 201 203 206 210 213 215 215 208 200 201 205 203 206 207 207 205 205 205 201 201 200 200 204 206 208 208 204 206 202 205 211 216 216 219 217 214 213 213 203 202 204 204 206 205 199 208 204 208 214 210 206 201 211 212 216 217 216 224 237
201 199 198 198 198 198 198 199 197 193 191 190 189 189 191 191 191 194 194 192 190 191 189 192 194 196 197 199 202 205 207 212 215 207 203 205 206 206 206 206 206 203 204 203 204 204 202 202 201 207 208 209 206 204 202 201 206 213 215 218 212 207 213 214 206 200 205 203 204 206 203 206 206 209 211 213 202 205 209 209 210 208 211 219 222
201 201 200 200 200 200 200 200 200 196 192 192 191 193 195 192 192 194 192 192 193 193 192 194 193 196 195 197 199 200 202 204 206 205 206 206 204 206 207 208 201 205 203 202 203 204 204 204 205 204 207 205 207 206 203 201 202 208 213 215 217 208 212 216 208 203 206 205 203 205 206 207 210 213 212 209 206 200 206 211 208 205 210 206 213
201 203 203 202 201 201 200 197 199 198 195 194 194 194 194 194 195 195 194 194 195 194 194 193 194 195 198 197 198 197 199 203 206 206 206 207 206 204 205 203 205 203 203 204 203 204 204 203 206 203 203 204 201 205 204 201 199 202 207 208 213 212 211 216 205 205 205 207 203 204 207 207 209 217 213 211 210 205 203 209 206 211 213 209 203
207 210 208 204 199 200 199 196 197 200 200 197 195 196 197 198 197 195 195 196 196 195 194 191 193 195 198 198 198 199 199 201 204 204 206 206 206 205 203 204 205 204 203 206 204 206 203 202 205 204 201 201 199 200 208 206 201 201 203 206 206 205 206 209 203 204 205 204 205 205 206 206 208 212 214 216 213 212 211 212 212 210 217 217 207
198 204 206 207 203 195 198 197 199 199 200 199 197 198 198 198 198 196 197 197 196 194 192 192 194 197 197 196 199 200 200 201 203 206 206 207 206 204 203 205 205 207 205 205 208 207 204 202 202 203 200 199 198 200 204 211 206 202 203 204 202 200 201 203 204 204 205 204 206 206 209 207 207 210 211 213 215 211 212 211 215 216 215 223 221
191 194 195 195 198 194 197 199 197 198 199 199 199 200 199 198 197 198 199 197 195 193 192 193 195 197 196 197 199 200 202 204 205 205 206 207 208 207 204 205 205 209 208 204 205 207 205 202 203 202 201 200 200 200 203 209 208 204 204 205 202 198 199 201 204 205 205 206 206 209 207 206 206 209 209 212 212 209 209 210 212 212 214 216 222
202 196 195 199 198 196 194 199 199 198 200 199 202 201 202 201 200 199 198 195 194 193 193 192 195 197 197 198 200 201 204 205 205 206 207 207 209 209 207 204 207 208 207 207 204 205 205 204 203 202 202 202 201 203 204 207 208 206 206 210 206 201 200 201 203 205 204 206 208 208 208 205 206 207 210 210 210 207 205 211 212 211 210 212 218
205 197 198 195 200 203 200 198 199 200 200 201 202 205 205 203 203 202 199 195 194 193 194 195 195 197 197 199 199 201 202 205 204 206 207 208 210 210 209 207 204 207 206 208 206 205 204 204 204 203 204 203 203 204 204 205 209 209 208 209 210 204 203 202 204 206 206 207 208 209 209 208 207 208 210 209 204 204 205 210 212 212 210 212 213
182 186 192 200 204 207 207 204 204 203 203 204 203 204 204 204 205 203 200 197 194 194 194 197 196 197 198 200 200 199 201 202 203 202 205 207 208 209 208 207 205 206 208 207 207 204 203 203 202 203 204 203 204 206 205 206 207 209 209 209 210 208 206 204 204 206 209 210 209 211 212 210 210 209 211 209 205 202 201 209 208 210 209 210 217
184 188 197 204 205 208 211 213 210 210 210 208 207 206 205 204 204 202 202 201 196 194 195 196 197 198 199 198 197 198 199 199 199 199 202 206 208 207 207 206 205 207 207 209 208 205 202 202 201 203 203 204 206 207 207 205 205 207 210 209 209 209 209 207 205 207 209 211 211 213 216 215 207 209 205 209 207 198 200 203 205 204 207 209 214
208 195 197 204 211 208 206 209 209 211 211 210 208 207 205 204 203 200 201 201 196 196 196 196 198 200 197 193 193 194 194 195 196 199 200 202 206 205 206 206 206 206 207 208 208 207 206 202 201 202 203 205 207 209 202 197 199 204 204 209 209 210 211 210 206 207 209 209 211 214 214 212 203 195 198 200 203 191 201 211 202 200 202 206 208
260 203 191 193 205 207 206 206 206 207 208 209 209 208 207 208 205 203 201 200 196 196 197 198 200 199 192 188 189 192 190 193 196 196 197 199 202 204 204 205 206 205 207 205 207 208 209 206 203 203 204 207 207 208 189 188 193 196 203 207 209 209 209 210 209 207 210 209 211 213 217 198 196 189 193 192 196 193 193 209 208 199 202 199 201
283 293 234 182 200 204 210 211 210 208 206 208 209 208 206 210 206 205 202 197 197 197 198 199 200 192 188 187 188 187 189 191 191 196 196 197 198 203 204 203 203 204 204 206 206 207 209 209 208 207 208 208 211 200 181 187 189 190 197 207 211 211 208 208 210 210 210 209 209 209 209 207 203 203 201 191 196 194 195 202 205 198 199 201 208
292 295 269 247 238 221 210 220 217 213 211 210 207 207 209 209 208 205 200 198 201 200 198 198 196 191 187 187 184 186 188 188 191 192 193 194 196 201 204 203 205 204 203 206 205 206 208 210 211 210 211 210 216 189 182 184 187 190 194 203 214 213 211 211 211 212 211 210 208 207 206 205 201 183 192 198 198 197 199 203 207 205 204 200 202
293 294 288 277 243 243 241 225 225 223 218 213 209 211 211 207 205 200 202 202 200 202 196 195 193 193 188 186 187 188 189 191 188 188 190 196 197 202 204 205 205 204 206 206 206 207 208 209 211 213 213 214 219 186 183 182 187 190 193 199 214 213 215 215 216 217 213 212 208 204 203 200 199 183 195 197 195 196 194 200 205 209 212 208 211
285 280 277 264 243 246 246 246 243 237 226 219 215 215 210 205 201 199 198 198 199 200 199 194 192 192 190 188 190 193 191 189 189 189 192 198 201 203 204 207 208 208 208 210 211 208 210 210 211 214 216 219 222 188 182 183 186 188 192 196 210 215 218 218 217 220 225 221 211 207 204 201 197 190 191 191 193 194 191 195 202 207 212 211 210
278 292 304 288 268 263 266 266 255 239 232 224 220 212 208 207 202 202 200 197 197 197 200 197 194 192 192 191 190 190 189 189 190 191 195 199 202 203 205 205 209 211 212 214 215 211 212 211 217 222 220 224 226 190 182 183 186 188 185 193 205 213 216 216 217 218 223 228 227 216 206 204 199 198 177 177 190 189 193 195 197 203 206 214 219
284 284 284 290 282 269 269 261 245 246 239 228 219 211 210 206 201 201 198 198 195 195 199 199 198 194 191 189 188 187 188 189 191 193 198 202 204 206 207 203 207 210 210 211 214 214 217 217 214 216 220 224 228 195 182 183 185 183 177 196 202 210 215 216 221 218 219 226 225 224 224 211 200 202 167 174 181 186 204 207 204 198 202 206 217
287 293 287 277 267 264 254 250 251 241 241 236 217 210 206 206 204 199 197 198 197 198 197 198 198 195 191 187 186 186 187 189 190 196 199 202 204 204 205 201 206 207 210 212 210 212 213 213 213 215 214 220 226 202 183 185 184 179 182 193 198 204 210 215 222 222 221 224 226 221 222 223 210 202 161 176 175 182 203 204 203 200 206 207 208
306 303 298 299 301 289 278 257 248 245 230 222 218 209 206 205 204 202 198 200 203 203 199 197 194 189 184 177 182 187 189 190 194 199 201 201 201 202 201 200 208 210 214 213 213 216 218 217 220 221 218 223 229 215 182 185 185 181 187 195 197 202 205 211 214 219 219 222 223 209 203 218 223 189 160 173 174 182 199 203 201 206 206 204 207
311 312 333 315 298 280 256 245 232 227 229 212 208 207 210 202 200 203 203 205 208 206 200 194 187 185 179 179 185 191 194 195 199 201 200 202 199 197 200 201 205 209 213 215 216 219 221 221 217 219 221 223 229 231 185 189 184 185 190 196 200 199 205 207 209 212 210 217 218 216 191 200 211 165 167 171 176 182 196 202 199 203 204 200 202
332 355 344 313 301 300 305 320 17 334 245 214 202 199 204 199 196 203 212 209 203 198 193 190 185 184 185 190 194 196 197 200 201 198 197 198 199 203 202 203 207 209 213 215 217 220 222 224 221 220 225 223 228 233 198 184 187 188 192 198 206 205 205 200 205 205 208 210 212 215 209 184 191 166 169 171 175 184 190 191 196 201 204 195 194
6 350 353 338 331 344 310 357 19 213 214 213 203 200 199 192 193 204 211 211 197 189 186 183 184 189 192 194 197 198 200 201 198 195 197 201 205 206 206 209 213 213 215 220 224 225 233 236 235 230 234 233 226 217 225 183 189 189 192 201 212 212 203 199 199 205 206 209 210 207 217 174 179 168 170 171 176 182 190 192 194 196 188 177 190
355 356 6 351 4 354 5 358 9 18 25 175 189 188 194 194 201 202 201 201 197 188 187 186 186 192 194 193 194 192 191 198 200 200 199 201 205 208 211 211 215 226 228 230 230 231 231 234 238 236 234 233 233 226 214 186 190 191 194 199 209 215 197 204 200 202 204 205 205 203 202 164 174 168 170 173 175 182 184 193 190 178 165 171 178
353 1 358 339 38 21 22 20 13 16 26 39 157 170 180 180 156 116 175 178 184 188 189 190 191 194 192 192 192 195 198 202 201 200 202 206 209 210 211 212 212 217 228 230 233 228 231 232 232 237 237 235 230 232 211 197 189 195 197 201 206 215 204 204 208 208 204 201 202 197 188 161 168 169 172 174 176 177 183 187 170 159 161 166 183
4 8 12 17 36 27 28 29 27 26 27 34 53 114 117 97 66 86 144 166 177 180 186 194 195 193 191 191 193 198 200 201 200 200 200 204 207 205 209 210 213 217 224 230 230 231 229 230 235 237 237 236 235 227 235 196 191 193 199 201 206 209 216 211 214 219 208 206 201 185 164 159 167 170 171 172 173 178 182 172 162 162 157 181 184
21 22 29 40 52 49 42 39 38 36 41 40 49 62 69 57 46 51 143 174 190 189 192 196 195 194 193 194 194 199 201 201 200 202 203 206 206 207 211 210 214 223 227 228 232 236 233 233 236 240 240 240 237 234 233 221 189 197 199 200 202 204 213 220 220 225 226 210 182 168 155 161 165 168 166 167 167 174 174 162 162 162 177 187 189
28 25 32 55 56 56 48 44 45 41 46 55 59 66 72 73 60 81 157 181 193 190 192 194 197 198 196 201 200 203 204 204 205 209 210 210 211 215 214 217 217 227 222 225 234 235 235 235 237 239 241 241 239 239 233 225 170 189 191 196 200 204 210 212 216 219 230 200 164 156 155 165 166 170 171 162 160 158 158 157 160 175 187 189 189
43 42 45 65 68 68 63 60 58 54 53 55 57 57 49 48 55 30 51 155 157 173 186 186 191 196 196 199 204 205 208 210 203 208 213 214 219 223 225 226 224 230 231 231 232 232 236 239 244 245 246 244 245 244 237 231 206 183 184 183 183 196 200 201 207 209 206 138 138 138 137 153 155 158 164 160 165 164 163 159 165 182 190 189 186
47 44 39 53 65 74 75 72 65 58 58 57 55 54 56 53 46 34 30 60 94 139 140 136 147 162 172 182 194 193 208 216 213 215 222 231 231 230 231 232 237 241 256 254 247 246 243 247 250 252 249 247 245 247 246 244 234 183 186 186 184 188 183 191 202 206 138 131 136 143 158 164 166 164 163 165 164 163 173 177 181 185 191 187 182
58 58 53 57 57 70 77 73 71 67 69 67 64 63 61 57 54 63 78 86 79 82 95 110 136 152 169 147 164 187 191 216 219 220 218 195 65 72 64 5 338 38 65 91 83 328 334 345 319 300 287 268 256 257 265 235 220 195 192 195 194 184 183 185 194 185 163 169 164 165 170 168 168 166 163 162 164 167 169 175 181 182 185 179 189
63 80 76 65 61 63 69 70 70 72 71 66 63 59 52 50 54 56 77 101 108 109 112 113 109 105 99 115 145 151 174 209 228 233 232 282 204 77 77 106 166 305 36 340 283 266 261 254 248 279 281 275 281 285 287 278 237 208 195 197 184 177 181 188 186 173 178 181 174 171 167 165 171 171 164 163 161 165 170 173 177 178 179 169 180